START_TIME,STEP,MOV.,A46,t_acc.,A13,t_acc.,M47,t_acc.,A17,t_acc.,A28,t_acc.,M38,t_acc.
1979-07-05 00:00:26.270 ,0,0,,0,13.,4.8,0.,4.8,,0,0.,4.8,10.,4.8
1979-07-05 00:00:31.070 ,0,0,,0,21.,4.8,0.,4.8,,0,0.,4.8,5.,4.8
1979-07-05 00:00:35.870 ,0,0,,0,11.,4.8,0.,4.8,,0,0.,4.8,9.,4.8
1979-07-05 00:00:40.670 ,0,0,,0,0.,4.8,0.,4.8,,0,0.,4.8,7.,4.8
1979-07-05 00:00:45.470 ,0,0,,0,0.,4.8,0.,4.8,,0,0.,4.8,4.,4.8
1979-07-05 00:00:50.270 ,1,0,,0,0.,4.8,0.,4.8,,0,0.,4.8,10.,4.8
1979-07-05 00:00:55.070 ,1,0,,0,0.,4.8,0.,4.8,,0,0.,4.8,8.,4.8
1979-07-05 00:00:59.870 ,1,0,,0,3.,4.8,0.,4.8,,0,0.,4.8,3.,4.8
1979-07-05 00:01:04.670 ,1,0,,0,7.,4.8,0.,4.8,,0,0.,4.8,2.,4.8
1979-07-05 00:01:09.470 ,1,0,,0,9.,4.8,0.,4.8,,0,0.,4.8,4.,4.8
1979-07-05 00:01:14.270 ,1,0,,0,9.,4.8,0.,4.8,,0,0.,4.8,4.,4.8
1979-07-05 00:01:19.070 ,1,0,,0,10.,4.8,1.,4.8,,0,0.,4.8,5.,4.8
1979-07-05 00:01:23.870 ,1,0,,0,13.,4.8,0.,4.8,,0,0.,4.8,2.,4.8
1979-07-05 00:01:28.670 ,1,0,,0,0.,4.8,0.,4.8,,0,0.,4.8,3.,4.8
1979-07-05 00:01:33.470 ,1,0,,0,0.,4.8,0.,4.8,,0,0.,4.8,4.,4.8
1979-07-05 00:01:38.270 ,2,0,,0,0.,4.8,0.,4.8,,0,0.,4.8,2.,4.8
1979-07-05 00:01:43.070 ,2,0,,0,0.,4.8,0.,4.8,,0,0.,4.8,4.,4.8
1979-07-05 00:01:47.870 ,2,0,,0,2.,4.8,0.,4.8,,0,0.,4.8,6.,4.8
1979-07-05 00:01:52.670 ,2,0,,0,10.,4.8,0.,4.8,,0,0.,4.8,1.,4.8
1979-07-05 00:01:57.470 ,2,0,,0,20.,4.8,3.,4.8,,0,0.,4.8,4.,4.8
1979-07-05 00:02:02.270 ,2,0,,0,14.,4.8,0.,4.8,,0,0.,4.8,7.,4.8
1979-07-05 00:02:07.070 ,2,0,,0,16.,4.8,0.,4.8,,0,0.,4.8,4.,4.8
1979-07-05 00:02:11.870 ,2,0,,0,16.,4.8,1.,4.8,,0,0.,4.8,5.,4.8
1979-07-05 00:02:16.670 ,2,0,,0,1.,4.8,0.,4.8,,0,1.,4.8,6.,4.8
1979-07-05 00:02:21.470 ,2,0,,0,0.,4.8,0.,4.8,,0,0.,4.8,2.,4.8
1979-07-05 00:02:26.270 ,3,0,,0,0.,4.8,0.,4.8,,0,0.,4.8,6.,4.8
1979-07-05 00:02:31.070 ,3,0,,0,0.,4.8,0.,4.8,,0,0.,4.8,10.,4.8
1979-07-05 00:02:35.870 ,3,0,,0,7.,4.8,2.,4.8,,0,0.,4.8,14.,4.8
1979-07-05 00:02:40.670 ,3,0,,0,49.,4.8,5.,4.8,,0,0.,4.8,16.,4.8
1979-07-05 00:02:45.470 ,3,0,,0,56.,4.8,2.,4.8,,0,0.,4.8,11.,4.8
1979-07-05 00:02:50.270 ,3,0,,0,38.,4.8,2.,4.8,,0,0.,4.8,15.,4.8
1979-07-05 00:02:55.070 ,3,0,,0,54.,4.8,3.,4.8,,0,0.,4.8,18.,4.8
1979-07-05 00:02:59.870 ,3,0,,0,27.,4.8,2.,4.8,,0,0.,4.8,15.,4.8
1979-07-05 00:03:04.670 ,3,0,,0,0.,4.8,0.,4.8,,0,0.,4.8,17.,4.8
1979-07-05 00:03:09.470 ,3,0,,0,0.,4.8,0.,4.8,,0,0.,4.8,15.,4.8
1979-07-05 00:03:14.270 ,4,0,,0,0.,4.8,0.,4.8,,0,0.,4.8,18.,4.8
1979-07-05 00:03:19.070 ,4,0,,0,0.,4.8,0.,4.8,,0,0.,4.8,27.,4.8
1979-07-05 00:03:23.870 ,4,0,,0,17.,4.8,1.,4.8,,0,0.,4.8,49.,4.8
1979-07-05 00:03:28.670 ,4,0,,0,106.,4.8,6.,4.8,,0,0.,4.8,40.,4.8
1979-07-05 00:03:33.470 ,4,0,,0,88.,4.8,10.,4.8,,0,0.,4.8,42.,4.8
1979-07-05 00:03:38.270 ,4,0,,0,80.,4.8,2.,4.8,,0,0.,4.8,55.,4.8
1979-07-05 00:03:43.070 ,4,0,,0,70.,4.8,4.,4.8,,0,0.,4.8,51.,4.8
1979-07-05 00:03:47.870 ,4,0,,0,64.,4.8,4.,4.8,,0,0.,4.8,50.,4.8
1979-07-05 00:03:52.670 ,4,0,,0,0.,4.8,0.,4.8,,0,0.,4.8,40.,4.8
1979-07-05 00:03:57.470 ,4,0,,0,0.,4.8,0.,4.8,,0,0.,4.8,49.,4.8
1979-07-05 00:04:02.270 ,5,0,,0,0.,4.8,0.,4.8,,0,0.,4.8,38.,4.8
1979-07-05 00:04:07.070 ,5,0,,0,0.,4.8,0.,4.8,,0,0.,4.8,50.,4.8
1979-07-05 00:04:11.870 ,5,0,,0,13.,4.8,0.,4.8,,0,0.,4.8,25.,4.8
1979-07-05 00:04:16.670 ,5,0,,0,98.,4.8,7.,4.8,,0,0.,4.8,40.,4.8
1979-07-05 00:04:21.470 ,5,0,,0,104.,4.8,8.,4.8,,0,0.,4.8,37.,4.8
1979-07-05 00:04:26.270 ,5,0,,0,72.,4.8,3.,4.8,,0,0.,4.8,39.,4.8
1979-07-05 00:04:31.070 ,5,0,,0,90.,4.8,5.,4.8,,0,0.,4.8,32.,4.8
1979-07-05 00:04:35.870 ,5,0,,0,82.,4.8,3.,4.8,,0,1.,4.8,34.,4.8
1979-07-05 00:04:40.670 ,5,0,,0,0.,4.8,0.,4.8,,0,0.,4.8,27.,4.8
1979-07-05 00:04:45.470 ,5,0,,0,0.,4.8,0.,4.8,,0,0.,4.8,41.,4.8
1979-07-05 00:04:50.270 ,6,0,,0,0.,4.8,0.,4.8,,0,0.,4.8,38.,4.8
1979-07-05 00:04:55.070 ,6,0,,0,0.,4.8,0.,4.8,,0,0.,4.8,28.,4.8
1979-07-05 00:04:59.870 ,6,0,,0,12.,4.8,1.,4.8,,0,0.,4.8,35.,4.8
1979-07-05 00:05:04.670 ,6,0,,0,102.,4.8,4.,4.8,,0,0.,4.8,38.,4.8
1979-07-05 00:05:09.470 ,6,0,,0,96.,4.8,12.,4.8,,0,0.,4.8,48.,4.8
1979-07-05 00:05:14.270 ,6,0,,0,90.,4.8,7.,4.8,,0,0.,4.8,38.,4.8
1979-07-05 00:05:19.070 ,6,0,,0,78.,4.8,6.,4.8,,0,0.,4.8,37.,4.8
1979-07-05 00:05:23.870 ,6,0,,0,88.,4.8,12.,4.8,,0,0.,4.8,35.,4.8
1979-07-05 00:05:28.670 ,6,0,,0,0.,4.8,0.,4.8,,0,0.,4.8,36.,4.8
1979-07-05 00:05:33.470 ,6,0,,0,0.,4.8,0.,4.8,,0,0.,4.8,41.,4.8
1979-07-05 00:05:38.270 ,7,0,,0,0.,4.8,0.,4.8,,0,0.,4.8,39.,4.8
1979-07-05 00:05:43.070 ,7,0,,0,0.,4.8,0.,4.8,,0,0.,4.8,19.,4.8
1979-07-05 00:05:47.870 ,7,0,,0,3.,4.8,0.,4.8,,0,0.,4.8,0.,4.8
1979-07-05 00:05:52.670 ,7,0,,0,12.,4.8,0.,4.8,,0,0.,4.8,0.,4.8
1979-07-05 00:05:57.470 ,7,0,,0,14.,4.8,0.,4.8,,0,0.,4.8,0.,4.8
1979-07-05 00:06:02.270 ,7,0,,0,10.,4.8,0.,4.8,,0,0.,4.8,0.,4.8
1979-07-05 00:06:07.070 ,7,0,,0,10.,4.8,0.,4.8,,0,0.,4.8,0.,4.8
1979-07-05 00:06:11.870 ,7,0,,0,11.,4.8,0.,4.8,,0,0.,4.8,1.,4.8
1979-07-05 00:06:16.670 ,7,0,,0,0.,4.8,0.,4.8,,0,0.,4.8,0.,4.8
1979-07-05 00:06:21.470 ,7,0,,0,0.,4.8,0.,4.8,,0,0.,4.8,0.,4.8
1979-07-05 00:06:26.270 ,7,0,,0,0.,4.8,0.,4.8,,0,0.,4.8,0.,4.8
1979-07-05 00:06:31.070 ,7,0,,0,0.,4.8,0.,4.8,,0,0.,4.8,0.,4.8
1979-07-05 00:06:35.870 ,7,0,,0,4.,4.8,0.,4.8,,0,0.,4.8,0.,4.8
1979-07-05 00:06:40.670 ,7,0,,0,11.,4.8,0.,4.8,,0,0.,4.8,0.,4.8
1979-07-05 00:06:45.470 ,7,0,,0,18.,4.8,0.,4.8,,0,0.,4.8,0.,4.8
1979-07-05 00:06:50.270 ,7,0,,0,19.,4.8,0.,4.8,,0,0.,4.8,0.,4.8
1979-07-05 00:06:55.070 ,7,0,,0,14.,4.8,0.,4.8,,0,0.,4.8,0.,4.8
1979-07-05 00:06:59.870 ,7,0,,0,14.,4.8,0.,4.8,,0,0.,4.8,0.,4.8
1979-07-05 00:07:04.670 ,7,0,,0,0.,4.8,0.,4.8,,0,0.,4.8,0.,4.8
1979-07-05 00:07:09.470 ,7,0,,0,0.,4.8,0.,4.8,,0,0.,4.8,0.,4.8
1979-07-05 00:07:14.270 ,6,0,,0,0.,4.8,0.,4.8,,0,0.,4.8,0.,4.8
1979-07-05 00:07:19.070 ,6,0,,0,0.,4.8,0.,4.8,,0,0.,4.8,8.,4.8
1979-07-05 00:07:23.870 ,6,0,,0,10.,4.8,0.,4.8,,0,0.,4.8,34.,4.8
1979-07-05 00:07:28.670 ,6,0,,0,94.,4.8,7.,4.8,,0,0.,4.8,32.,4.8
1979-07-05 00:07:33.470 ,6,0,,0,74.,4.8,2.,4.8,,0,0.,4.8,46.,4.8
1979-07-05 00:07:38.270 ,6,0,,0,88.,4.8,6.,4.8,,0,0.,4.8,33.,4.8
1979-07-05 00:07:43.070 ,6,0,,0,80.,4.8,4.,4.8,,0,0.,4.8,35.,4.8
1979-07-05 00:07:47.870 ,6,0,,0,68.,4.8,8.,4.8,,0,0.,4.8,36.,4.8
1979-07-05 00:07:52.670 ,6,0,,0,0.,4.8,0.,4.8,,0,0.,4.8,31.,4.8
1979-07-05 00:07:57.470 ,6,0,,0,0.,4.8,0.,4.8,,0,0.,4.8,32.,4.8
1979-07-05 00:08:02.270 ,5,0,,0,0.,4.8,0.,4.8,,0,0.,4.8,28.,4.8
1979-07-05 00:08:07.070 ,5,0,,0,0.,4.8,0.,4.8,,0,0.,4.8,33.,4.8
1979-07-05 00:08:11.870 ,5,0,,0,10.,4.8,2.,4.8,,0,0.,4.8,16.,4.8
1979-07-05 00:08:16.670 ,5,0,,0,86.,4.8,11.,4.8,,0,0.,4.8,30.,4.8
1979-07-05 00:08:21.470 ,5,0,,0,82.,4.8,6.,4.8,,0,0.,4.8,31.,4.8
1979-07-05 00:08:26.270 ,5,0,,0,84.,4.8,10.,4.8,,0,0.,4.8,26.,4.8
1979-07-05 00:08:31.070 ,5,0,,0,82.,4.8,6.,4.8,,0,0.,4.8,41.,4.8
1979-07-05 00:08:35.870 ,5,0,,0,70.,4.8,7.,4.8,,0,0.,4.8,30.,4.8
1979-07-05 00:08:40.670 ,5,0,,0,0.,4.8,0.,4.8,,0,0.,4.8,28.,4.8
1979-07-05 00:08:45.470 ,5,0,,0,0.,4.8,0.,4.8,,0,0.,4.8,41.,4.8
1979-07-05 00:08:50.270 ,4,0,,0,0.,4.8,0.,4.8,,0,0.,4.8,30.,4.8
1979-07-05 00:08:55.070 ,4,0,,0,0.,4.8,0.,4.8,,0,0.,4.8,39.,4.8
1979-07-05 00:08:59.870 ,4,0,,0,15.,4.8,0.,4.8,,0,0.,4.8,50.,4.8
1979-07-05 00:09:04.670 ,4,0,,0,90.,4.8,10.,4.8,,0,0.,4.8,37.,4.8
1979-07-05 00:09:09.470 ,4,0,,0,100.,4.8,7.,4.8,,0,0.,4.8,45.,4.8
1979-07-05 00:09:14.270 ,4,0,,0,106.,4.8,12.,4.8,,0,0.,4.8,46.,4.8
1979-07-05 00:09:19.070 ,4,0,,0,102.,4.8,6.,4.8,,0,0.,4.8,42.,4.8
1979-07-05 00:09:23.870 ,4,0,,0,70.,4.8,6.,4.8,,0,0.,4.8,45.,4.8
1979-07-05 00:09:28.670 ,4,0,,0,0.,4.8,0.,4.8,,0,0.,4.8,34.,4.8
1979-07-05 00:09:33.470 ,4,0,,0,0.,4.8,0.,4.8,,0,0.,4.8,33.,4.8
1979-07-05 00:09:38.270 ,3,0,,0,0.,4.8,0.,4.8,,0,0.,4.8,40.,4.8
1979-07-05 00:09:43.070 ,3,0,,0,0.,4.8,1.,4.8,,0,0.,4.8,51.,4.8
1979-07-05 00:09:47.870 ,3,0,,0,11.,4.8,0.,4.8,,0,0.,4.8,10.,4.8
1979-07-05 00:09:52.670 ,3,0,,0,44.,4.8,3.,4.8,,0,0.,4.8,21.,4.8
1979-07-05 00:09:57.470 ,3,0,,0,54.,4.8,3.,4.8,,0,0.,4.8,15.,4.8
1979-07-05 00:10:02.270 ,3,0,,0,52.,4.8,2.,4.8,,0,0.,4.8,20.,4.8
1979-07-05 00:10:07.070 ,3,0,,0,51.,4.8,2.,4.8,,0,0.,4.8,23.,4.8
1979-07-05 00:10:11.870 ,3,0,,0,43.,4.8,1.,4.8,,0,0.,4.8,21.,4.8
1979-07-05 00:10:16.670 ,3,0,,0,0.,4.8,0.,4.8,,0,0.,4.8,33.,4.8
1979-07-05 00:10:21.470 ,3,0,,0,0.,4.8,3.,4.8,,0,0.,4.8,25.,4.8
1979-07-05 00:10:26.270 ,2,0,,0,0.,4.8,3.,4.8,,0,0.,4.8,28.,4.8
1979-07-05 00:10:31.070 ,2,0,,0,0.,4.8,1.,4.8,,0,0.,4.8,29.,4.8
1979-07-05 00:10:35.870 ,2,0,,0,5.,4.8,0.,4.8,,0,0.,4.8,19.,4.8
1979-07-05 00:10:40.670 ,2,0,,0,31.,4.8,0.,4.8,,0,0.,4.8,16.,4.8
1979-07-05 00:10:45.470 ,2,0,,0,47.,4.8,1.,4.8,,0,0.,4.8,21.,4.8
1979-07-05 00:10:50.270 ,2,0,,0,37.,4.8,1.,4.8,,0,0.,4.8,13.,4.8
1979-07-05 00:10:55.070 ,2,0,,0,39.,4.8,2.,4.8,,0,0.,4.8,20.,4.8
1979-07-05 00:10:59.870 ,2,0,,0,31.,4.8,1.,4.8,,0,0.,4.8,24.,4.8
1979-07-05 00:11:04.670 ,2,0,,0,0.,4.8,0.,4.8,,0,0.,4.8,17.,4.8
1979-07-05 00:11:09.470 ,2,0,,0,0.,4.8,0.,4.8,,0,0.,4.8,22.,4.8
1979-07-05 00:11:14.270 ,1,0,,0,0.,4.8,0.,4.8,,0,0.,4.8,18.,4.8
1979-07-05 00:11:19.070 ,1,0,,0,0.,4.8,0.,4.8,,0,0.,4.8,11.,4.8
1979-07-05 00:11:23.870 ,1,0,,0,5.,4.8,0.,4.8,,0,0.,4.8,9.,4.8
1979-07-05 00:11:28.670 ,1,0,,0,22.,4.8,1.,4.8,,0,0.,4.8,5.,4.8
1979-07-05 00:11:33.470 ,1,0,,0,18.,4.8,0.,4.8,,0,0.,4.8,8.,4.8
1979-07-05 00:11:38.270 ,1,0,,0,34.,4.8,3.,4.8,,0,0.,4.8,5.,4.8
1979-07-05 00:11:43.070 ,1,0,,0,18.,4.8,0.,4.8,,0,0.,4.8,10.,4.8
1979-07-05 00:11:47.870 ,1,0,,0,18.,4.8,0.,4.8,,0,0.,4.8,9.,4.8
1979-07-05 00:11:52.670 ,1,0,,0,0.,4.8,0.,4.8,,0,1.,4.8,15.,4.8
1979-07-05 00:11:57.470 ,1,0,,0,0.,4.8,0.,4.8,,0,0.,4.8,11.,4.8
1979-07-05 00:12:02.270 ,0,0,,0,0.,4.8,0.,4.8,,0,0.,4.8,6.,4.8
1979-07-05 00:12:07.070 ,0,0,,0,0.,4.8,0.,4.8,,0,0.,4.8,11.,4.8
1979-07-05 00:12:11.870 ,0,0,,0,9.,4.8,0.,4.8,,0,0.,4.8,10.,4.8
1979-07-05 00:12:16.670 ,0,0,,0,30.,4.8,1.,4.8,,0,0.,4.8,9.,4.8
1979-07-05 00:12:21.470 ,0,0,,0,21.,4.8,2.,4.8,,0,0.,4.8,14.,4.8
1979-07-05 00:12:26.270 ,0,0,,0,30.,4.8,3.,4.8,,0,0.,4.8,12.,4.8
1979-07-05 00:12:31.070 ,0,0,,0,34.,4.8,1.,4.8,,0,0.,4.8,14.,4.8
1979-07-05 00:12:35.870 ,0,0,,0,31.,4.8,1.,4.8,,0,0.,4.8,6.,4.8
1979-07-05 00:12:40.670 ,0,0,,0,0.,4.8,0.,4.8,,0,0.,4.8,11.,4.8
1979-07-05 00:12:45.470 ,0,0,,0,0.,4.8,1.,4.8,,0,0.,4.8,8.,4.8
1979-07-05 00:12:50.270 ,0,0,,0,0.,4.8,0.,4.8,,0,0.,4.8,12.,4.8
1979-07-05 00:12:55.070 ,0,0,,0,0.,4.8,0.,4.8,,0,0.,4.8,8.,4.8
1979-07-05 00:12:59.870 ,0,0,,0,10.,4.8,1.,4.8,,0,0.,4.8,11.,4.8
1979-07-05 00:13:04.670 ,0,0,,0,45.,4.8,2.,4.8,,0,0.,4.8,12.,4.8
1979-07-05 00:13:09.470 ,0,0,,0,32.,4.8,1.,4.8,,0,0.,4.8,9.,4.8
1979-07-05 00:13:14.270 ,0,0,,0,30.,4.8,1.,4.8,,0,0.,4.8,12.,4.8
1979-07-05 00:13:19.070 ,0,0,,0,41.,4.8,1.,4.8,,0,0.,4.8,22.,4.8
1979-07-05 00:13:23.870 ,0,0,,0,30.,4.8,2.,4.8,,0,0.,4.8,7.,4.8
1979-07-05 00:13:28.670 ,0,0,,0,0.,4.8,0.,4.8,,0,0.,4.8,10.,4.8
1979-07-05 00:13:33.470 ,0,0,,0,0.,4.8,0.,4.8,,0,0.,4.8,15.,4.8
1979-07-05 00:13:38.270 ,1,0,,0,0.,4.8,0.,4.8,,0,0.,4.8,11.,4.8
1979-07-05 00:13:43.070 ,1,0,,0,0.,4.8,0.,4.8,,0,0.,4.8,14.,4.8
1979-07-05 00:13:47.870 ,1,0,,0,6.,4.8,1.,4.8,,0,0.,4.8,11.,4.8
1979-07-05 00:13:52.670 ,1,0,,0,30.,4.8,0.,4.8,,0,0.,4.8,15.,4.8
1979-07-05 00:13:57.470 ,1,0,,0,23.,4.8,2.,4.8,,0,0.,4.8,17.,4.8
1979-07-05 00:14:02.270 ,1,0,,0,30.,4.8,0.,4.8,,0,0.,4.8,13.,4.8
1979-07-05 00:14:07.070 ,1,0,,0,31.,4.8,1.,4.8,,0,0.,4.8,9.,4.8
1979-07-05 00:14:11.870 ,1,0,,0,28.,4.8,2.,4.8,,0,0.,4.8,16.,4.8
1979-07-05 00:14:16.670 ,1,0,,0,0.,4.8,0.,4.8,,0,0.,4.8,16.,4.8
1979-07-05 00:14:21.470 ,1,0,,0,0.,4.8,0.,4.8,,0,0.,4.8,12.,4.8
1979-07-05 00:14:26.270 ,2,0,,0,0.,4.8,0.,4.8,,0,0.,4.8,5.,4.8
1979-07-05 00:14:31.070 ,2,0,,0,0.,4.8,0.,4.8,,0,0.,4.8,18.,4.8
1979-07-05 00:14:35.870 ,2,0,,0,3.,4.8,0.,4.8,,0,0.,4.8,21.,4.8
1979-07-05 00:14:40.670 ,2,0,,0,46.,4.8,1.,4.8,,0,0.,4.8,16.,4.8
1979-07-05 00:14:45.470 ,2,0,,0,28.,4.8,2.,4.8,,0,0.,4.8,17.,4.8
1979-07-05 00:14:50.270 ,2,0,,0,41.,4.8,3.,4.8,,0,0.,4.8,18.,4.8
1979-07-05 00:14:55.070 ,2,0,,0,37.,4.8,1.,4.8,,0,0.,4.8,11.,4.8
1979-07-05 00:14:59.870 ,2,0,,0,34.,4.8,1.,4.8,,0,1.,4.8,20.,4.8
1979-07-05 00:15:04.670 ,2,0,,0,0.,4.8,0.,4.8,,0,0.,4.8,14.,4.8
1979-07-05 00:15:09.470 ,2,0,,0,0.,4.8,1.,4.8,,0,0.,4.8,14.,4.8
1979-07-05 00:15:14.270 ,3,0,,0,0.,4.8,0.,4.8,,0,0.,4.8,23.,4.8
1979-07-05 00:15:19.070 ,3,0,,0,0.,4.8,2.,4.8,,0,0.,4.8,23.,4.8
1979-07-05 00:15:23.870 ,3,0,,0,7.,4.8,0.,4.8,,0,1.,4.8,38.,4.8
1979-07-05 00:15:28.670 ,3,0,,0,59.,4.8,3.,4.8,,0,0.,4.8,20.,4.8
1979-07-05 00:15:33.470 ,3,0,,0,61.,4.8,3.,4.8,,0,0.,4.8,20.,4.8
1979-07-05 00:15:38.270 ,3,0,,0,51.,4.8,5.,4.8,,0,0.,4.8,38.,4.8
1979-07-05 00:15:43.070 ,3,0,,0,66.,4.8,8.,4.8,,0,0.,4.8,35.,4.8
1979-07-05 00:15:47.870 ,3,0,,0,66.,4.8,7.,4.8,,0,0.,4.8,25.,4.8
1979-07-05 00:15:52.670 ,3,0,,0,0.,4.8,0.,4.8,,0,0.,4.8,36.,4.8
1979-07-05 00:15:57.470 ,3,0,,0,0.,4.8,1.,4.8,,0,0.,4.8,24.,4.8
1979-07-05 00:16:02.270 ,4,0,,0,0.,4.8,0.,4.8,,0,0.,4.8,28.,4.8
1979-07-05 00:16:07.070 ,4,0,,0,0.,4.8,0.,4.8,,0,0.,4.8,34.,4.8
1979-07-05 00:16:11.870 ,4,0,,0,18.,4.8,1.,4.8,,0,0.,4.8,55.,4.8
1979-07-05 00:16:16.670 ,4,0,,0,116.,4.8,10.,4.8,,0,0.,4.8,49.,4.8
1979-07-05 00:16:21.470 ,4,0,,0,128.,4.8,12.,4.8,,0,0.,4.8,57.,4.8
1979-07-05 00:16:26.270 ,4,0,,0,126.,4.8,13.,4.8,,0,0.,4.8,50.,4.8
1979-07-05 00:16:31.070 ,4,0,,0,114.,4.8,10.,4.8,,0,0.,4.8,46.,4.8
1979-07-05 00:16:35.870 ,4,0,,0,90.,4.8,5.,4.8,,0,0.,4.8,47.,4.8
1979-07-05 00:16:40.670 ,4,0,,0,0.,4.8,0.,4.8,,0,0.,4.8,45.,4.8
1979-07-05 00:16:45.470 ,4,0,,0,0.,4.8,0.,4.8,,0,0.,4.8,49.,4.8
1979-07-05 00:16:50.270 ,5,0,,0,0.,4.8,0.,4.8,,0,0.,4.8,44.,4.8
1979-07-05 00:16:55.070 ,5,0,,0,0.,4.8,0.,4.8,,0,0.,4.8,51.,4.8
1979-07-05 00:16:59.870 ,5,0,,0,17.,4.8,1.,4.8,,0,0.,4.8,27.,4.8
1979-07-05 00:17:04.670 ,5,0,,0,96.,4.8,11.,4.8,,0,0.,4.8,32.,4.8
1979-07-05 00:17:09.470 ,5,0,,0,110.,4.8,7.,4.8,,0,0.,4.8,38.,4.8
1979-07-05 00:17:14.270 ,5,0,,0,92.,4.8,7.,4.8,,0,0.,4.8,44.,4.8
1979-07-05 00:17:19.070 ,5,0,,0,104.,4.8,14.,4.8,,0,0.,4.8,34.,4.8
1979-07-05 00:17:23.870 ,5,0,,0,82.,4.8,9.,4.8,,0,0.,4.8,40.,4.8
1979-07-05 00:17:28.670 ,5,0,,0,0.,4.8,0.,4.8,,0,0.,4.8,34.,4.8
1979-07-05 00:17:33.470 ,5,0,,0,0.,4.8,0.,4.8,,0,0.,4.8,38.,4.8
1979-07-05 00:17:38.270 ,6,0,,0,0.,4.8,0.,4.8,,0,0.,4.8,40.,4.8
1979-07-05 00:17:43.070 ,6,0,,0,0.,4.8,0.,4.8,,0,0.,4.8,29.,4.8
1979-07-05 00:17:47.870 ,6,0,,0,19.,4.8,2.,4.8,,0,0.,4.8,31.,4.8
1979-07-05 00:17:52.670 ,6,0,,0,94.,4.8,9.,4.8,,0,0.,4.8,30.,4.8
1979-07-05 00:17:57.470 ,6,0,,0,102.,4.8,7.,4.8,,0,0.,4.8,28.,4.8
1979-07-05 00:18:02.270 ,6,0,,0,94.,4.8,11.,4.8,,0,0.,4.8,40.,4.8
1979-07-05 00:18:07.070 ,6,0,,0,108.,4.8,10.,4.8,,0,0.,4.8,34.,4.8
1979-07-05 00:18:11.870 ,6,0,,0,72.,4.8,8.,4.8,,0,0.,4.8,32.,4.8
1979-07-05 00:18:16.670 ,6,0,,0,0.,4.8,0.,4.8,,0,0.,4.8,30.,4.8
1979-07-05 00:18:21.470 ,6,0,,0,0.,4.8,0.,4.8,,0,0.,4.8,34.,4.8
1979-07-05 00:18:26.270 ,7,0,,0,0.,4.8,0.,4.8,,0,0.,4.8,27.,4.8
1979-07-05 00:18:31.070 ,7,0,,0,0.,4.8,0.,4.8,,0,0.,4.8,25.,4.8
1979-07-05 00:18:35.870 ,7,0,,0,2.,4.8,0.,4.8,,0,0.,4.8,0.,4.8
1979-07-05 00:18:40.670 ,7,0,,0,17.,4.8,0.,4.8,,0,0.,4.8,0.,4.8
1979-07-05 00:18:45.470 ,7,0,,0,14.,4.8,0.,4.8,,0,0.,4.8,0.,4.8
1979-07-05 00:18:50.270 ,7,0,,0,15.,4.8,0.,4.8,,0,0.,4.8,0.,4.8
1979-07-05 00:18:55.070 ,7,0,,0,15.,4.8,0.,4.8,,0,0.,4.8,0.,4.8
1979-07-05 00:18:59.870 ,7,0,,0,10.,4.8,0.,4.8,,0,0.,4.8,0.,4.8
1979-07-05 00:19:04.670 ,7,0,,0,0.,4.8,0.,4.8,,0,0.,4.8,0.,4.8
1979-07-05 00:19:09.470 ,7,0,,0,0.,4.8,0.,4.8,,0,0.,4.8,0.,4.8
1979-07-05 00:19:14.270 ,3,1,,0,0.,4.8,1.,4.8,,0,0.,4.8,26.,4.8
1979-07-05 00:19:19.070 ,3,1,,0,0.,4.8,0.,4.8,,0,0.,4.8,27.,4.8
1979-07-05 00:19:23.870 ,3,1,,0,15.,4.8,2.,4.8,,0,0.,4.8,35.,4.8
1979-07-05 00:19:28.670 ,3,1,,0,108.,4.8,10.,4.8,,0,0.,4.8,56.,4.8
1979-07-05 00:19:33.470 ,3,1,,0,88.,4.8,6.,4.8,,0,0.,4.8,30.,4.8
1979-07-05 00:19:38.270 ,0,1,,0,64.,4.8,6.,4.8,,0,0.,4.8,24.,4.8
1979-07-05 00:19:43.070 ,0,1,,0,40.,4.8,2.,4.8,,0,0.,4.8,11.,4.8
1979-07-05 00:19:47.870 ,0,1,,0,31.,4.8,0.,4.8,,0,0.,4.8,7.,4.8
1979-07-05 00:19:52.670 ,0,1,,0,0.,4.8,0.,4.8,,0,0.,4.8,16.,4.8
1979-07-05 00:19:57.470 ,0,1,,0,0.,4.8,0.,4.8,,0,0.,4.8,9.,4.8
1979-07-05 00:20:02.270 ,4,1,,0,0.,4.8,0.,4.8,,0,0.,4.8,11.,4.8
1979-07-05 00:20:07.070 ,4,1,,0,0.,4.8,0.,4.8,,0,0.,4.8,12.,4.8
1979-07-05 00:20:11.870 ,4,1,,0,7.,4.8,0.,4.8,,0,0.,4.8,18.,4.8
1979-07-05 00:20:16.670 ,4,1,,0,72.,4.8,2.,4.8,,0,0.,4.8,37.,4.8
1979-07-05 00:20:21.470 ,4,1,,0,108.,4.8,11.,4.8,,0,0.,4.8,32.,4.8
1979-07-05 00:20:26.270 ,7,1,,0,112.,4.8,6.,4.8,,0,0.,4.8,28.,4.8
1979-07-05 00:20:31.070 ,7,1,,0,118.,4.8,11.,4.8,,0,0.,4.8,33.,4.8
1979-07-05 00:20:35.870 ,7,1,,0,94.,4.8,14.,4.8,,0,0.,4.8,30.,4.8
1979-07-05 00:20:40.670 ,7,1,,0,0.,4.8,0.,4.8,,0,0.,4.8,1.,4.8
1979-07-05 00:20:45.470 ,7,1,,0,0.,4.8,0.,4.8,,0,0.,4.8,0.,4.8
1979-07-05 00:20:50.270 ,3,1,,0,0.,4.8,0.,4.8,,0,0.,4.8,17.,4.8
1979-07-05 00:20:55.070 ,3,1,,0,0.,4.8,0.,4.8,,0,0.,4.8,14.,4.8
1979-07-05 00:20:59.870 ,3,1,,0,20.,4.8,5.,4.8,,0,0.,4.8,33.,4.8
1979-07-05 00:21:04.670 ,3,1,,0,120.,4.8,12.,4.8,,0,0.,4.8,38.,4.8
1979-07-05 00:21:09.470 ,3,1,,0,88.,4.8,10.,4.8,,0,0.,4.8,34.,4.8
1979-07-05 00:21:14.270 ,0,1,,0,61.,4.8,2.,4.8,,0,0.,4.8,21.,4.8
1979-07-05 00:21:19.070 ,0,1,,0,36.,4.8,1.,4.8,,0,0.,4.8,8.,4.8
1979-07-05 00:21:23.870 ,0,1,,0,33.,4.8,0.,4.8,,0,0.,4.8,14.,4.8
1979-07-05 00:21:28.670 ,0,1,,0,0.,4.8,0.,4.8,,0,0.,4.8,19.,4.8
1979-07-05 00:21:33.470 ,0,1,,0,0.,4.8,0.,4.8,,0,0.,4.8,25.,4.8
1979-07-05 00:21:38.270 ,4,1,,0,0.,4.8,0.,4.8,,0,0.,4.8,18.,4.8
1979-07-05 00:21:43.070 ,4,1,,0,0.,4.8,0.,4.8,,0,0.,4.8,14.,4.8
1979-07-05 00:21:47.870 ,4,1,,0,12.,4.8,0.,4.8,,0,0.,4.8,13.,4.8
1979-07-05 00:21:52.670 ,4,1,,0,70.,4.8,3.,4.8,,0,0.,4.8,37.,4.8
1979-07-05 00:21:57.470 ,4,1,,0,128.,4.8,20.,4.8,,0,0.,4.8,49.,4.8
1979-07-05 00:22:02.270 ,7,1,,0,126.,4.8,14.,4.8,,0,0.,4.8,37.,4.8
1979-07-05 00:22:07.070 ,7,1,,0,118.,4.8,14.,4.8,,0,0.,4.8,39.,4.8
1979-07-05 00:22:11.870 ,7,1,,0,90.,4.8,7.,4.8,,0,0.,4.8,25.,4.8
1979-07-05 00:22:16.670 ,7,1,,0,1.,4.8,0.,4.8,,0,0.,4.8,0.,4.8
1979-07-05 00:22:21.470 ,7,1,,0,0.,4.8,0.,4.8,,0,0.,4.8,0.,4.8
1979-07-05 00:22:26.270 ,3,1,,0,0.,4.8,0.,4.8,,0,0.,4.8,23.,4.8
1979-07-05 00:22:31.070 ,3,1,,0,0.,4.8,0.,4.8,,0,0.,4.8,35.,4.8
1979-07-05 00:22:35.870 ,3,1,,0,20.,4.8,3.,4.8,,0,0.,4.8,46.,4.8
1979-07-05 00:22:40.670 ,3,1,,0,116.,4.8,11.,4.8,,0,0.,4.8,38.,4.8
1979-07-05 00:22:45.470 ,3,1,,0,86.,4.8,10.,4.8,,0,0.,4.8,34.,4.8
1979-07-05 00:22:50.270 ,0,1,,0,52.,4.8,4.,4.8,,0,0.,4.8,15.,4.8
1979-07-05 00:22:55.070 ,0,1,,0,30.,4.8,5.,4.8,,0,0.,4.8,5.,4.8
1979-07-05 00:22:59.870 ,0,1,,0,32.,4.8,1.,4.8,,0,0.,4.8,12.,4.8
1979-07-05 00:23:04.670 ,0,1,,0,0.,4.8,0.,4.8,,0,0.,4.8,14.,4.8
1979-07-05 00:23:09.470 ,0,1,,0,0.,4.8,0.,4.8,,0,0.,4.8,20.,4.8
1979-07-05 00:23:14.270 ,4,1,,0,0.,4.8,0.,4.8,,0,0.,4.8,16.,4.8
1979-07-05 00:23:19.070 ,4,1,,0,0.,4.8,0.,4.8,,0,0.,4.8,10.,4.8
1979-07-05 00:23:23.870 ,4,1,,0,8.,4.8,2.,4.8,,0,0.,4.8,13.,4.8
1979-07-05 00:23:28.670 ,4,1,,0,86.,4.8,6.,4.8,,0,0.,4.8,33.,4.8
1979-07-05 00:23:33.470 ,4,1,,0,116.,4.8,13.,4.8,,0,0.,4.8,36.,4.8
1979-07-05 00:23:38.270 ,7,1,,0,116.,4.8,11.,4.8,,0,0.,4.8,28.,4.8
1979-07-05 00:23:43.070 ,7,1,,0,112.,4.8,11.,4.8,,0,0.,4.8,40.,4.8
1979-07-05 00:23:47.870 ,7,1,,0,104.,4.8,8.,4.8,,0,0.,4.8,38.,4.8
1979-07-05 00:23:52.670 ,7,1,,0,0.,4.8,0.,4.8,,0,0.,4.8,0.,4.8
1979-07-05 00:23:57.470 ,7,1,,0,0.,4.8,0.,4.8,,0,0.,4.8,0.,4.8
1979-07-05 00:24:02.270 ,3,1,,0,0.,4.8,0.,4.8,,0,0.,4.8,19.,4.8
1979-07-05 00:24:07.070 ,3,1,,0,0.,4.8,0.,4.8,,0,0.,4.8,37.,4.8
1979-07-05 00:24:11.870 ,3,1,,0,24.,4.8,2.,4.8,,0,0.,4.8,37.,4.8
1979-07-05 00:24:16.670 ,3,1,,0,122.,4.8,14.,4.8,,0,0.,4.8,31.,4.8
1979-07-05 00:24:21.470 ,3,1,,0,110.,4.8,13.,4.8,,0,0.,4.8,23.,4.8
1979-07-05 00:24:26.270 ,0,1,,0,44.,4.8,1.,4.8,,0,0.,4.8,18.,4.8
1979-07-05 00:24:31.070 ,0,1,,0,33.,4.8,3.,4.8,,0,0.,4.8,7.,4.8
1979-07-05 00:24:35.870 ,0,1,,0,21.,4.8,2.,4.8,,0,0.,4.8,15.,4.8
1979-07-05 00:24:40.670 ,0,1,,0,0.,4.8,0.,4.8,,0,0.,4.8,15.,4.8
1979-07-05 00:24:45.470 ,0,1,,0,0.,4.8,1.,4.8,,0,0.,4.8,23.,4.8
1979-07-05 00:24:50.270 ,4,1,,0,0.,4.8,0.,4.8,,0,0.,4.8,16.,4.8
1979-07-05 00:24:55.070 ,4,1,,0,0.,4.8,0.,4.8,,0,0.,4.8,12.,4.8
1979-07-05 00:24:59.870 ,4,1,,0,1.,4.8,0.,4.8,,0,0.,4.8,7.,4.8
1979-07-05 00:25:04.670 ,4,1,,0,64.,4.8,7.,4.8,,0,0.,4.8,34.,4.8
1979-07-05 00:25:09.470 ,4,1,,0,126.,4.8,15.,4.8,,0,0.,4.8,27.,4.8
1979-07-05 00:25:14.270 ,7,1,,0,104.,4.8,11.,4.8,,0,0.,4.8,33.,4.8
1979-07-05 00:25:19.070 ,7,1,,0,126.,4.8,12.,4.8,,0,0.,4.8,42.,4.8
1979-07-05 00:25:23.870 ,7,1,,0,98.,4.8,10.,4.8,,0,0.,4.8,36.,4.8
1979-07-05 00:25:28.670 ,7,1,,0,0.,4.8,0.,4.8,,0,0.,4.8,0.,4.8
1979-07-05 00:25:33.470 ,7,1,,0,0.,4.8,0.,4.8,,0,0.,4.8,1.,4.8
1979-07-05 00:25:38.270 ,3,1,,0,0.,4.8,0.,4.8,,0,0.,4.8,28.,4.8
1979-07-05 00:25:43.070 ,3,1,,0,0.,4.8,0.,4.8,,0,0.,4.8,38.,4.8
1979-07-05 00:25:47.870 ,3,1,,0,16.,4.8,2.,4.8,,0,0.,4.8,38.,4.8
1979-07-05 00:25:52.670 ,3,1,,0,110.,4.8,8.,4.8,,0,0.,4.8,39.,4.8
1979-07-05 00:25:57.470 ,3,1,,0,70.,4.8,1.,4.8,,0,0.,4.8,27.,4.8
1979-07-05 00:26:02.270 ,0,1,,0,51.,4.8,3.,4.8,,0,0.,4.8,11.,4.8
1979-07-05 00:26:07.070 ,0,1,,0,34.,4.8,2.,4.8,,0,0.,4.8,11.,4.8
1979-07-05 00:26:11.870 ,0,1,,0,34.,4.8,0.,4.8,,0,0.,4.8,7.,4.8
1979-07-05 00:26:16.670 ,0,1,,0,0.,4.8,0.,4.8,,0,0.,4.8,20.,4.8
1979-07-05 00:26:21.470 ,0,1,,0,0.,4.8,0.,4.8,,0,0.,4.8,16.,4.8
1979-07-05 00:26:26.270 ,4,1,,0,0.,4.8,0.,4.8,,0,0.,4.8,17.,4.8
1979-07-05 00:26:31.070 ,4,1,,0,0.,4.8,0.,4.8,,0,0.,4.8,11.,4.8
1979-07-05 00:26:35.870 ,4,1,,0,12.,4.8,2.,4.8,,0,0.,4.8,9.,4.8
1979-07-05 00:26:40.670 ,4,1,,0,98.,4.8,5.,4.8,,0,0.,4.8,27.,4.8
1979-07-05 00:26:45.470 ,4,1,,0,112.,4.8,15.,4.8,,0,0.,4.8,28.,4.8
1979-07-05 00:26:50.270 ,7,1,,0,124.,4.8,13.,4.8,,0,0.,4.8,37.,4.8
1979-07-05 00:26:55.070 ,7,1,,0,114.,4.8,9.,4.8,,0,0.,4.8,31.,4.8
1979-07-05 00:26:59.870 ,7,1,,0,94.,4.8,11.,4.8,,0,0.,4.8,31.,4.8
1979-07-05 00:27:04.670 ,7,1,,0,0.,4.8,0.,4.8,,0,0.,4.8,0.,4.8
1979-07-05 00:27:09.470 ,7,1,,0,0.,4.8,0.,4.8,,0,0.,4.8,0.,4.8
1979-07-05 00:27:14.270 ,3,1,,0,0.,4.8,0.,4.8,,0,0.,4.8,27.,4.8
1979-07-05 00:27:19.070 ,3,1,,0,0.,4.8,0.,4.8,,0,0.,4.8,31.,4.8
1979-07-05 00:27:23.870 ,3,1,,0,16.,4.8,3.,4.8,,0,0.,4.8,24.,4.8
1979-07-05 00:27:28.670 ,3,1,,0,112.,4.8,9.,4.8,,0,0.,4.8,33.,4.8
1979-07-05 00:27:33.470 ,3,1,,0,78.,4.8,10.,4.8,,0,0.,4.8,19.,4.8
1979-07-05 00:27:38.270 ,0,1,,0,54.,4.8,2.,4.8,,0,0.,4.8,14.,4.8
1979-07-05 00:27:43.070 ,0,1,,0,28.,4.8,1.,4.8,,0,0.,4.8,4.,4.8
1979-07-05 00:27:47.870 ,0,1,,0,22.,4.8,1.,4.8,,0,0.,4.8,5.,4.8
1979-07-05 00:27:52.670 ,0,1,,0,0.,4.8,0.,4.8,,0,0.,4.8,14.,4.8
1979-07-05 00:27:57.470 ,0,1,,0,0.,4.8,0.,4.8,,0,0.,4.8,17.,4.8
1979-07-05 00:28:02.270 ,4,1,,0,0.,4.8,0.,4.8,,0,0.,4.8,7.,4.8
1979-07-05 00:28:07.070 ,4,1,,0,0.,4.8,0.,4.8,,0,0.,4.8,5.,4.8
1979-07-05 00:28:11.870 ,4,1,,0,8.,4.8,2.,4.8,,0,0.,4.8,10.,4.8
1979-07-05 00:28:16.670 ,4,1,,0,84.,4.8,7.,4.8,,0,0.,4.8,33.,4.8
1979-07-05 00:28:21.470 ,4,1,,0,120.,4.8,10.,4.8,,0,0.,4.8,41.,4.8
1979-07-05 00:28:26.270 ,7,1,,0,132.,4.8,10.,4.8,,0,0.,4.8,35.,4.8
1979-07-05 00:28:31.070 ,7,1,,0,126.,4.8,14.,4.8,,0,0.,4.8,40.,4.8
1979-07-05 00:28:35.870 ,7,1,,0,100.,4.8,10.,4.8,,0,0.,4.8,41.,4.8
1979-07-05 00:28:40.670 ,7,1,,0,0.,4.8,0.,4.8,,0,0.,4.8,0.,4.8
1979-07-05 00:28:45.470 ,7,1,,0,0.,4.8,0.,4.8,,0,0.,4.8,0.,4.8
1979-07-05 00:28:50.270 ,3,1,,0,0.,4.8,0.,4.8,,0,0.,4.8,15.,4.8
1979-07-05 00:28:55.070 ,3,1,,0,0.,4.8,0.,4.8,,0,0.,4.8,28.,4.8
1979-07-05 00:28:59.870 ,3,1,,0,24.,4.8,3.,4.8,,0,0.,4.8,45.,4.8
1979-07-05 00:29:04.670 ,3,1,,0,120.,4.8,10.,4.8,,0,0.,4.8,43.,4.8
1979-07-05 00:29:09.470 ,3,1,,0,78.,4.8,7.,4.8,,0,0.,4.8,23.,4.8
1979-07-05 00:29:14.270 ,0,1,,0,39.,4.8,6.,4.8,,0,0.,4.8,16.,4.8
1979-07-05 00:29:19.070 ,0,1,,0,25.,4.8,0.,4.8,,0,0.,4.8,7.,4.8
1979-07-05 00:29:23.870 ,0,1,,0,17.,4.8,0.,4.8,,0,0.,4.8,5.,4.8
1979-07-05 00:29:28.670 ,0,1,,0,0.,4.8,0.,4.8,,0,0.,4.8,17.,4.8